Sunlight Mountain, CO

9:08 AM MST on January 17, 2018 (GMT -0700)
Sunlight Mountain

Weather History for K5SM - July, 2013

Change the Weather History Date:

Saturday, July 6, 2013

  Actual Average (KRIL) Record (KRIL)
Temperature  
Mean Temperature 59 °F -  
Max Temperature 68 °F 91 °F 103 °F (1989)
Min Temperature 50 °F 50 °F 40 °F (1934)
Degree Days  
Heating Degree Days 6    
Growing Degree Days 9 (Base 50)    
Moisture  
Dew Point 43 °F    
Average Humidity 58    
Maximum Humidity 82    
Minimum Humidity 40    
Precipitation  
Precipitation 0.00 in - - ()
Sea Level Pressure  
Sea Level Pressure 30.46 in    
Wind  
Wind Speed 3 mph (WNW)    
Max Wind Speed 10 mph    
Max Gust Speed 22 mph    
Visibility 9 miles    
Events Rain    
Averages and records for this station are not official NWS values.
T = Trace of Precipitation, MM = Missing Value Source: NWS Daily Summary

Daily Weather History Graph

Daily Weather History Graph

Search for Another Location

Airport or City:

Trip Planner

Search our weather history database for the weather conditions in past years. The results will help you decide how hot, cold, wet, or windy it might be!

Date:

Astronomy

Jul. 06, 2013 Rise Set
Actual Time 5:49 AM MDT 8:39 PM MDT
Civil Twilight 5:17 AM MDT 9:11 PM MDT
Nautical Twilight 4:36 AM MDT 9:51 PM MDT
Astronomical Twilight 3:50 AM MDT 10:37 PM MDT
Moon 4:37 AM MDT (7/6) 7:23 PM MDT (7/6)
Length of Visible Light 15h 54m
Length of Day
14h 50m
Waning Crescent, 2% of the Moon is Illuminated
Jul 6
Waning Crescent
Jul 8
New
Jul 15
First Quarter
Jul 22
Full
Jul 29
Last Quarter

Hourly Weather History & Observations

Time (MDT) Temp. Dew Point Humidity Pressure Visibility Wind Dir Wind Speed Gust Speed Precip Events Conditions
12:02 AM 53.6 °F 46.4 °F 77% 30.42 in 10.0 mi SW 3.5 mph - N/A Rain Light Rain
12:22 AM 51.8 °F 46.4 °F 82% 30.43 in 10.0 mi West 5.8 mph - N/A Rain Light Rain
12:40 AM 51.8 °F 46.4 °F 82% 30.42 in 10.0 mi West 10.4 mph 19.6 mph N/A Rain Rain
1:02 AM 51.8 °F 42.8 °F 71% 30.42 in 10.0 mi West 5.8 mph - N/A   Light Drizzle
1:22 AM 51.8 °F 42.8 °F 71% 30.42 in 10.0 mi West 4.6 mph - N/A   Clear
1:42 AM 53.6 °F 41.0 °F 62% 30.43 in 10.0 mi West 4.6 mph - N/A   Scattered Clouds
2:02 AM 51.8 °F 42.8 °F 71% 30.44 in 10.0 mi WSW 5.8 mph - N/A   Scattered Clouds
2:21 AM 51.8 °F 42.8 °F 71% 30.44 in 10.0 mi West 5.8 mph - N/A   Scattered Clouds
2:41 AM 51.8 °F 42.8 °F 71% 30.44 in 10.0 mi West 5.8 mph - N/A   Mostly Cloudy
3:02 AM 51.8 °F 42.8 °F 71% 30.44 in 7.0 mi West 8.1 mph 16.1 mph N/A   Scattered Clouds
3:22 AM 50.0 °F 42.8 °F 76% 30.45 in 7.0 mi WSW 3.5 mph - N/A   Clear
3:41 AM 50.0 °F 41.0 °F 71% 30.45 in 7.0 mi West 5.8 mph - N/A   Clear
4:01 AM 51.8 °F 41.0 °F 67% 30.44 in 7.0 mi NW 4.6 mph - N/A   Mostly Cloudy
4:22 AM 51.8 °F 41.0 °F 67% 30.44 in 7.0 mi NNW 3.5 mph - N/A   Mostly Cloudy
4:42 AM 51.8 °F 41.0 °F 67% 30.44 in 7.0 mi North 3.5 mph - N/A   Scattered Clouds
5:02 AM 53.6 °F 37.4 °F 54% 30.44 in 7.0 mi North 3.5 mph - N/A   Clear
5:22 AM 51.8 °F 37.4 °F 58% 30.43 in 7.0 mi Calm Calm - N/A   Mostly Cloudy
5:42 AM 53.6 °F 37.4 °F 54% 30.43 in 7.0 mi Calm Calm - N/A   Overcast
6:01 AM 53.6 °F 37.4 °F 54% 30.44 in 7.0 mi Calm Calm - N/A   Mostly Cloudy
6:22 AM 53.6 °F 37.4 °F 54% 30.44 in 7.0 mi Calm Calm - N/A   Scattered Clouds
6:41 AM 53.6 °F 37.4 °F 54% 30.44 in 7.0 mi Calm Calm - N/A   Mostly Cloudy
7:02 AM 53.6 °F 37.4 °F 54% 30.44 in 7.0 mi Calm Calm - N/A   Scattered Clouds
7:22 AM 53.6 °F 39.2 °F 58% 30.45 in 7.0 mi Calm Calm - N/A   Scattered Clouds
7:42 AM 55.4 °F 41.0 °F 58% 30.46 in 10.0 mi Calm Calm - N/A   Mostly Cloudy
8:01 AM 55.4 °F 42.8 °F 63% 30.46 in 10.0 mi Calm Calm - N/A   Overcast
8:21 AM 55.4 °F 42.8 °F 63% 30.46 in 10.0 mi Calm Calm - N/A   Mostly Cloudy
8:42 AM 57.2 °F 44.6 °F 63% 30.47 in 10.0 mi Calm Calm - N/A   Scattered Clouds
9:02 AM 59.0 °F 44.6 °F 59% 30.47 in 10.0 mi Calm Calm - N/A   Scattered Clouds
9:22 AM 59.0 °F 46.4 °F 63% 30.47 in 10.0 mi Calm Calm - N/A   Clear
9:42 AM 60.8 °F 46.4 °F 59% 30.47 in 10.0 mi Calm Calm - N/A   Scattered Clouds
10:02 AM 60.8 °F 46.4 °F 59% 30.47 in 10.0 mi Calm Calm - N/A   Scattered Clouds
10:22 AM 62.6 °F 46.4 °F 55% 30.48 in 10.0 mi Calm Calm - N/A   Clear
10:42 AM 62.6 °F 46.4 °F 55% 30.48 in 10.0 mi Calm Calm - N/A   Clear
11:02 AM 62.6 °F 48.2 °F 59% 30.49 in 10.0 mi WSW 4.6 mph - N/A   Scattered Clouds
11:22 AM 62.6 °F 50.0 °F 63% 30.49 in 10.0 mi Calm Calm - N/A   Scattered Clouds
11:42 AM 62.6 °F 50.0 °F 63% 30.50 in 10.0 mi Calm Calm - N/A   Clear
12:02 PM 64.4 °F 48.2 °F 56% 30.50 in 10.0 mi Calm Calm - N/A   Clear
12:22 PM 62.6 °F 48.2 °F 59% 30.50 in 10.0 mi Calm Calm - N/A   Scattered Clouds
12:41 PM 62.6 °F 46.4 °F 55% 30.50 in 10.0 mi Calm Calm - N/A   Scattered Clouds
1:02 PM 62.6 °F 46.4 °F 55% 30.50 in 10.0 mi Calm Calm - N/A   Mostly Cloudy
1:22 PM 64.4 °F 44.6 °F 49% 30.50 in 7.0 mi West 3.5 mph - N/A   Scattered Clouds
1:42 PM 64.4 °F 44.6 °F 49% 30.50 in 10.0 mi Calm Calm - N/A   Clear
2:02 PM 64.4 °F 44.6 °F 49% 30.50 in 10.0 mi WSW 3.5 mph - N/A   Clear
2:22 PM 68.0 °F 46.4 °F 46% 30.49 in 10.0 mi Calm Calm - N/A   Clear
2:41 PM 66.2 °F 46.4 °F 49% 30.48 in 10.0 mi Calm Calm - N/A   Clear
3:01 PM 68.0 °F 46.4 °F 46% 30.48 in 10.0 mi Calm Calm - N/A   Clear
3:22 PM 68.0 °F 46.4 °F 46% 30.46 in 10.0 mi Calm Calm - N/A   Clear
3:42 PM 68.0 °F 42.8 °F 40% 30.46 in 10.0 mi SSE 3.5 mph - N/A   Clear
4:01 PM 66.2 °F 44.6 °F 46% 30.47 in 10.0 mi Calm Calm - N/A   Clear
4:22 PM 64.4 °F 44.6 °F 49% 30.46 in 10.0 mi Calm Calm - N/A   Scattered Clouds
4:42 PM 62.6 °F 44.6 °F 52% 30.46 in 10.0 mi NNW 4.6 mph - N/A   Mostly Cloudy
5:02 PM 62.6 °F 42.8 °F 48% 30.46 in 10.0 mi NW 4.6 mph - N/A   Overcast
5:22 PM 64.4 °F 42.8 °F 45% 30.44 in 10.0 mi WNW 3.5 mph - N/A   Scattered Clouds
5:42 PM 66.2 °F 42.8 °F 43% 30.44 in 10.0 mi Calm Calm - N/A   Clear
6:02 PM 68.0 °F 42.8 °F 40% 30.44 in 10.0 mi NE 3.5 mph - N/A   Clear
6:22 PM 66.2 °F 42.8 °F 43% 30.44 in 10.0 mi Calm Calm - N/A   Clear
6:42 PM 64.4 °F 42.8 °F 45% 30.44 in 10.0 mi Calm Calm - N/A   Clear
7:02 PM 64.4 °F 42.8 °F 45% 30.44 in 10.0 mi Calm Calm - N/A   Clear
7:21 PM 64.4 °F 42.8 °F 45% 30.44 in 10.0 mi Calm Calm - N/A   Clear
7:42 PM 62.6 °F 44.6 °F 52% 30.44 in 10.0 mi Calm Calm - N/A   Clear
8:02 PM 62.6 °F 44.6 °F 52% 30.44 in 10.0 mi Calm Calm - N/A   Clear
8:22 PM 60.8 °F 42.8 °F 52% 30.44 in 10.0 mi Calm Calm - N/A   Scattered Clouds
8:42 PM 60.8 °F 42.8 °F 52% 30.45 in 10.0 mi Calm Calm - N/A   Mostly Cloudy
9:02 PM 60.8 °F 42.8 °F 52% 30.46 in 10.0 mi Calm Calm - N/A   Overcast
9:22 PM 53.6 °F 44.6 °F 72% 30.48 in 7.0 mi West 10.4 mph 20.7 mph N/A Rain Light Rain
9:42 PM 51.8 °F 42.8 °F 71% 30.49 in 7.0 mi NW 9.2 mph 21.9 mph N/A Rain Light Rain
10:02 PM 51.8 °F 42.8 °F 71% 30.49 in 7.0 mi West 10.4 mph 17.3 mph N/A   Mostly Cloudy
10:21 PM 53.6 °F 42.8 °F 67% 30.50 in 7.0 mi NW 6.9 mph - N/A   Scattered Clouds
10:42 PM 55.4 °F 41.0 °F 58% 30.50 in 7.0 mi North 8.1 mph - N/A   Clear
11:02 PM 55.4 °F 41.0 °F 58% 30.50 in 7.0 mi North 4.6 mph - N/A   Clear
11:22 PM 59.0 °F 39.2 °F 48% 30.50 in 7.0 mi Calm Calm - N/A   Scattered Clouds
11:42 PM 55.4 °F 39.2 °F 54% 30.50 in 7.0 mi NNE 3.5 mph - N/A   Mostly Cloudy